Wind_Speed
13 11 10 4 4 4 1 3 2 4 5 2 13 2 4 3 2 2 12 18 34 30 27 26 26 24 22 21 20 20 21 20 20 19 17 16 14 12 10 9 8 6 5 4 3 3 4 4 4
16 15 3 2 4 3 4 2 5 4 4 7 8 4 3 2 4 9 13 29 36 33 28 28 26 25 24 23 22 20 20 19 18 17 16 14 12 11 10 9 9 7 6 5 3 3 2 2 3
20 9 3 3 3 2 2 2 3 2 11 4 4 5 3 2 8 17 12 35 36 34 29 27 27 26 24 23 24 21 20 18 17 16 15 13 11 10 8 9 8 8 6 6 4 3 3 4 4
10 1 2 1 2 2 3 4 4 6 2 6 6 5 4 3 10 12 30 35 35 33 30 27 26 24 24 23 23 20 19 17 16 15 14 12 10 9 8 7 7 6 6 6 5 6 6 6 5
4 2 2 2 3 1 3 6 7 5 4 4 2 3 4 3 10 25 30 34 35 33 31 27 26 25 25 23 21 19 18 17 16 14 12 11 10 9 9 9 8 7 6 6 6 7 7 6 7
1 2 4 3 4 2 3 9 6 3 4 5 6 5 4 10 23 25 29 31 31 32 30 27 24 23 22 21 20 19 17 16 15 13 12 11 10 11 10 10 10 9 9 10 9 9 9 8 8
4 3 1 2 1 2 4 5 5 4 6 4 8 5 1 5 19 26 27 29 29 29 29 27 25 22 21 21 20 18 17 16 15 14 13 12 11 11 11 11 12 11 12 12 11 10 10 9 9
4 3 1 2 2 3 4 2 5 3 4 8 7 6 5 7 21 23 26 28 27 27 27 26 27 25 23 22 20 19 18 17 16 15 14 13 12 12 12 12 13 13 13 12 12 12 12 10 10
2 4 3 6 6 4 5 4 2 4 10 2 4 6 8 27 23 22 21 21 23 23 25 26 26 25 24 22 20 19 18 17 16 16 15 14 14 13 13 12 12 12 12 12 12 12 12 11 10
3 3 4 3 4 7 3 5 8 5 4 3 4 13 28 27 23 20 19 18 21 23 26 27 27 27 24 23 22 20 20 19 19 18 17 15 14 14 13 12 11 11 11 11 12 13 11 11 11
1 2 4 3 9 6 5 4 3 10 2 5 9 17 18 21 18 18 19 28 33 31 28 29 28 27 26 25 23 22 22 21 20 19 17 16 15 15 14 13 13 12 12 12 13 14 13 14 13
4 2 3 6 7 8 7 6 5 3 2 10 16 21 15 14 13 17 18 18 24 28 30 30 29 28 27 26 24 24 23 23 21 20 18 17 17 16 16 15 14 14 14 14 13 15 14 15 15
3 3 9 13 6 9 6 2 4 5 9 16 17 16 16 14 17 19 23 23 21 25 29 31 30 30 28 27 26 25 25 24 23 21 19 20 20 19 18 18 18 18 18 18 17 18 18 17 15
3 2 7 7 7 6 5 3 3 3 11 17 17 15 14 14 20 17 16 20 25 28 30 30 30 31 29 29 29 27 26 25 23 21 21 21 21 22 20 20 20 20 21 19 18 19 19 18 18
1 2 1 2 3 4 3 4 2 7 11 15 15 14 14 15 19 23 28 28 34 36 31 31 31 32 32 31 30 29 27 25 23 21 21 22 23 24 23 23 22 21 21 20 20 22 21 20 19
1 4 5 3 3 1 6 5 2 7 11 10 11 13 15 16 23 28 27 32 31 28 34 32 31 33 32 32 32 32 30 28 27 26 25 24 24 25 26 26 26 22 20 21 23 22 24 24 20
7 1 1 7 4 4 3 2 5 7 7 8 10 10 10 11 12 23 29 33 33 35 33 33 32 33 34 32 32 32 32 31 30 28 28 28 28 29 29 27 28 27 25 23 22 22 23 24 21
3 1 3 4 2 3 3 3 5 9 8 9 8 8 8 10 15 24 29 32 33 34 34 34 34 34 34 33 33 33 32 33 33 32 32 31 30 30 31 30 28 29 28 26 24 24 25 24 22
4 1 4 3 5 3 5 3 8 8 5 8 7 8 9 12 17 20 26 28 31 33 33 35 34 37 36 35 33 34 35 36 38 37 35 32 31 30 30 31 31 30 31 31 30 28 28 28 23
2 3 5 8 7 6 3 4 6 9 13 13 10 11 13 12 7 12 22 26 30 34 35 37 39 39 39 39 37 35 33 37 39 37 38 36 32 29 30 32 32 32 34 34 33 30 25 24 25
3 5 5 6 3 4 4 5 3 5 6 6 9 9 12 13 12 9 11 25 29 33 36 39 41 40 40 40 36 31 30 27 23 32 35 37 35 33 32 31 31 33 36 38 36 33 33 22 22
3 9 7 5 4 3 2 3 5 5 7 8 12 11 13 13 8 8 10 17 27 35 35 38 40 41 40 39 38 36 29 26 31 34 34 32 33 33 34 33 33 35 37 37 37 34 32 32 24
7 4 7 3 4 2 1 3 6 1 6 10 11 12 14 13 13 13 12 24 34 31 33 38 38 39 41 40 40 39 33 33 34 30 30 31 29 28 29 30 32 34 35 40 39 38 35 33 33
4 6 7 5 3 2 2 4 5 5 9 6 6 10 12 9 13 15 23 23 28 30 29 31 34 38 38 39 40 43 42 41 34 35 36 34 30 28 28 29 32 34 35 36 40 40 37 37 34
6 5 3 3 2 5 4 4 7 6 7 8 9 10 10 9 10 13 12 12 21 24 30 32 33 38 39 40 41 43 44 36 28 17 16 16 14 15 23 33 38 35 34 36 35 36 35 33 32
6 8 5 6 4 3 2 4 3 6 9 7 3 7 7 7 6 8 9 10 13 18 20 27 31 39 28 33 38 37 34 28 22 21 21 12 6 13 27 33 37 39 31 32 29 30 31 27 26
3 3 4 7 3 2 2 6 6 9 10 8 8 9 10 8 6 7 6 1 8 15 15 17 24 29 26 27 28 33 35 36 34 31 27 25 26 24 44 50 42 44 40 27 25 27 25 23 21
3 5 3 3 4 3 4 4 3 11 10 9 9 7 6 6 9 8 6 9 8 9 7 5 8 12 14 17 22 25 27 27 28 31 30 31 35 38 48 49 33 41 38 29 26 22 23 22 22
1 1 6 5 3 5 3 5 5 7 7 4 6 7 7 10 11 10 9 18 21 24 24 19 16 13 11 10 11 13 13 17 18 18 24 34 39 35 28 36 38 42 32 24 23 21 24 21 25
2 3 5 5 4 1 3 4 4 3 5 3 6 7 8 9 9 10 12 19 24 26 27 23 21 18 13 11 8 2 4 4 10 17 27 33 37 35 37 38 30 26 27 25 24 27 26 26 26
Wind_Direction
143 141 120 44 58 57 239 251 148 129 155 244 150 226 167 51 164 210 151 157 152 154 156 159 156 151 151 150 148 147 149 148 146 144 147 154 159 164 166 163 162 158 152 147 140 138 130 136 148
153 143 76 62 76 61 296 313 150 186 115 94 106 121 105 119 90 130 136 160 156 156 159 160 159 158 157 159 154 153 148 150 152 152 155 159 164 168 173 176 173 176 172 170 175 173 171 198 211
152 143 104 140 128 123 168 160 157 117 150 140 108 56 88 110 108 143 159 157 158 159 162 160 162 162 161 164 160 161 158 159 160 160 161 161 163 163 176 179 186 186 187 183 191 210 247 243 245
152 169 299 49 12 249 184 167 136 125 68 62 102 59 74 96 140 165 154 157 160 163 164 162 166 165 165 168 168 168 168 168 171 172 173 177 183 187 198 201 203 209 202 209 216 219 229 247 249
176 104 16 16 311 240 105 155 155 149 102 97 100 59 83 96 135 148 154 161 164 165 167 167 172 173 171 172 174 175 178 177 178 184 188 190 193 200 205 221 224 234 245 244 235 242 240 230 238
94 154 46 1 312 34 81 158 150 70 87 133 82 97 160 148 142 150 156 164 169 168 171 171 177 179 177 179 181 183 187 189 192 195 196 197 199 209 211 218 230 238 244 250 246 237 237 225 225
112 74 191 288 23 119 171 148 143 144 122 114 134 99 41 157 152 153 161 169 173 174 176 178 178 184 184 187 191 192 196 199 201 202 204 205 206 217 222 227 234 241 246 248 251 246 244 237 234
104 92 74 303 43 297 148 90 114 110 56 118 151 162 184 180 155 154 164 171 175 179 183 184 186 188 190 191 196 197 200 204 206 208 210 212 216 223 233 237 239 238 244 249 251 246 241 243 244
58 52 11 15 27 298 165 111 106 101 137 215 148 138 146 145 145 144 154 167 179 185 189 190 192 192 196 197 199 204 207 211 214 217 218 218 222 223 235 237 245 238 236 236 244 251 254 249 243
82 92 12 321 339 342 212 134 156 114 139 59 50 99 122 138 147 149 163 172 183 190 195 197 198 199 202 204 205 210 211 215 217 221 221 227 232 231 236 239 241 241 239 240 241 247 249 257 258
143 89 309 262 314 323 154 132 139 121 216 196 155 133 136 145 158 168 181 185 191 197 200 202 202 204 205 207 208 210 215 217 222 225 228 227 235 238 239 241 240 243 243 239 240 243 248 252 258
101 311 358 290 338 334 161 139 105 113 246 139 146 142 144 158 170 182 192 190 197 202 207 209 207 208 209 211 213 216 218 222 225 228 229 231 233 234 236 238 240 245 248 253 250 253 253 256 259
89 323 318 306 314 4 76 85 117 58 102 122 136 146 158 169 184 197 199 201 200 206 210 214 213 213 213 215 219 223 225 227 230 232 231 232 233 235 239 242 246 250 254 254 252 252 256 258 266
97 240 289 310 328 38 104 79 75 95 127 131 143 161 172 180 190 199 204 210 211 213 215 217 218 217 215 217 221 224 228 231 233 235 234 233 234 236 239 244 248 255 260 258 257 261 262 267 269
352 327 266 341 16 80 109 19 5 149 145 148 160 168 184 199 197 204 205 209 215 218 219 219 221 219 218 218 222 225 229 231 232 233 232 232 237 240 241 245 250 256 261 262 263 265 265 266 266
52 56 25 315 138 259 90 260 206 165 151 161 172 182 183 194 206 215 213 218 220 217 221 221 222 221 221 222 224 226 229 233 235 235 235 235 238 239 243 248 250 253 260 266 263 257 265 268 271
26 17 17 320 203 125 142 260 189 176 170 175 186 200 209 201 212 215 218 220 220 224 224 223 221 222 221 222 226 229 234 237 240 241 245 245 245 247 246 247 251 252 257 265 261 256 258 266 272
206 231 245 237 298 154 174 215 194 191 183 193 199 207 216 218 231 223 219 224 225 227 226 228 226 224 226 226 227 231 235 240 243 244 247 249 250 246 244 247 250 251 255 257 255 254 258 261 267
106 216 290 258 255 207 209 192 212 194 198 215 209 221 226 226 232 234 234 226 229 231 228 227 226 227 224 224 226 233 237 241 244 246 245 245 245 242 238 240 244 248 251 249 252 254 255 257 258
326 310 278 282 252 155 153 243 226 184 220 217 208 221 232 239 239 234 231 229 224 230 229 227 229 227 225 225 225 225 231 237 240 245 244 239 242 244 245 247 250 252 254 253 255 258 259 262 258
227 209 209 230 57 54 109 319 209 232 224 222 230 216 227 231 234 240 217 225 225 225 230 229 228 228 229 230 229 231 234 242 243 244 243 241 244 243 244 249 253 257 255 255 257 260 258 249 258
262 211 195 167 110 201 63 260 282 226 227 220 236 219 220 217 224 234 227 221 222 227 230 229 229 228 231 230 228 228 226 232 243 247 249 247 245 244 243 246 251 257 262 261 261 260 258 253 248
223 67 121 99 102 107 13 76 268 80 235 242 229 227 232 207 211 224 225 226 231 228 227 230 230 230 231 231 230 228 227 235 242 243 250 250 250 248 247 248 251 252 256 262 266 264 258 255 249
130 63 47 63 62 12 309 130 283 186 218 243 241 228 235 209 204 219 223 226 230 231 230 234 234 234 235 234 233 229 229 233 236 243 249 250 255 258 256 255 257 260 260 264 266 269 263 260 256
79 63 22 336 341 224 316 114 249 275 246 229 241 253 227 226 197 214 216 214 225 224 228 231 236 241 238 238 238 239 238 239 247 263 265 265 275 298 315 301 281 265 265 269 272 267 263 259 258
175 156 160 205 202 258 55 230 282 310 310 230 205 279 287 255 228 223 230 243 239 234 234 233 235 246 244 246 247 246 248 244 245 250 247 215 197 336 325 311 315 290 266 271 266 263 261 257 260
161 163 170 102 25 74 252 293 301 350 0 5 38 30 2 353 19 35 37 48 240 245 248 249 249 251 252 255 252 251 251 244 237 234 229 221 221 244 258 275 280 295 273 262 255 253 253 252 254
162 154 75 18 137 221 294 270 235 329 314 343 7 33 14 31 44 35 16 14 19 25 9 314 290 289 293 286 276 266 248 237 231 237 230 232 248 260 242 252 248 258 264 253 248 245 251 248 251
51 344 51 108 103 154 166 266 211 257 284 348 353 27 30 43 31 25 23 33 54 49 45 48 43 28 10 348 315 282 242 223 225 238 251 256 257 267 243 229 252 253 253 248 247 246 252 252 258
159 140 137 119 209 78 138 267 329 105 63 77 56 29 27 41 32 27 23 26 34 43 45 50 45 42 39 27 13 287 184 200 263 280 291 284 272 272 257 259 239 248 280 263 251 247 249 255 257
Height
762 763 766 768 791 795 797 785 768 777 775 761 761 769 776 778 784 805 786 788 790 798 803 808 811 814 819 822 823 824 825 826 827 829 831 832 834 835 836 838 838 838 838 837 837 837 838 839 840
764 766 769 774 799 809 801 769 779 772 766 761 764 769 777 787 780 786 788 790 791 798 804 807 811 815 819 822 823 826 827 828 830 831 832 834 835 835 836 837 838 839 839 839 838 838 839 839 840
765 768 776 787 797 802 795 769 769 764 762 763 771 769 777 786 783 784 786 790 795 800 805 808 812 816 819 823 823 826 827 829 830 832 834 835 836 837 837 837 838 840 840 841 841 841 841 840 840
765 770 774 786 786 775 772 768 763 768 763 761 768 782 777 778 783 785 789 793 796 802 806 810 813 817 819 823 824 826 828 830 831 833 834 835 836 838 838 838 839 840 841 842 842 843 843 842 842
764 768 785 787 783 766 761 761 761 767 767 769 768 788 789 785 785 788 791 794 796 802 807 810 814 817 820 823 825 827 829 831 832 833 834 835 836 837 839 839 840 840 840 841 843 843 844 845 844
770 770 795 799 782 765 759 756 760 766 768 771 777 786 790 785 786 790 794 797 800 802 807 811 816 819 821 823 826 828 830 832 833 834 835 835 835 836 838 839 839 840 840 840 841 842 844 844 845
766 780 789 784 777 770 763 755 765 768 769 774 770 791 791 789 789 791 795 799 802 806 809 812 816 818 821 823 825 828 830 831 833 834 835 835 835 835 836 838 839 839 839 839 841 842 843 843 845
763 775 783 777 783 777 757 756 757 764 772 764 766 789 794 786 790 793 796 800 804 807 810 812 815 817 820 822 825 827 829 830 832 832 833 834 834 835 835 836 836 837 838 839 840 840 841 843 843
756 785 794 780 777 768 755 763 756 757 765 764 766 772 773 782 790 795 799 803 805 808 810 812 815 818 820 822 824 827 829 830 832 833 833 833 833 833 834 835 835 835 836 837 839 839 839 841 842
771 790 783 767 761 763 757 757 761 766 769 773 773 772 777 784 791 795 798 800 804 806 809 812 815 817 819 821 823 826 828 830 831 832 832 833 833 833 834 834 835 835 836 837 838 838 839 839 839
770 783 769 760 755 752 754 760 756 767 778 770 777 778 781 787 792 795 797 795 796 802 807 809 813 815 817 819 821 823 825 827 829 830 831 832 833 833 834 835 835 835 835 837 837 838 838 838 839
775 765 762 756 753 753 755 753 762 761 763 759 769 773 781 788 792 794 797 800 800 803 806 808 811 814 816 818 819 821 823 824 826 827 828 830 831 831 833 833 834 835 835 836 837 837 837 837 837
772 768 759 751 751 747 748 758 762 767 762 764 771 778 783 788 791 793 794 797 800 802 804 806 809 812 814 816 818 819 820 822 823 825 826 827 828 830 831 832 833 833 834 834 835 835 835 837 836
766 768 761 751 751 750 763 763 760 769 766 771 776 780 784 787 788 792 796 796 797 798 800 803 806 809 811 812 814 815 817 818 820 822 823 825 826 827 828 829 830 831 831 831 832 833 833 834 835
763 772 765 759 754 759 760 776 777 766 768 773 778 781 783 785 789 787 787 790 791 792 796 798 801 804 806 808 809 812 814 817 818 819 820 822 824 825 826 826 827 829 829 830 830 830 830 831 832
774 776 794 767 759 759 766 797 774 768 770 777 778 779 781 783 783 784 785 785 788 792 791 794 798 800 803 805 807 810 811 813 815 817 817 818 819 820 823 824 824 825 827 827 827 829 828 827 828
787 800 795 784 758 763 770 787 770 768 772 777 777 778 777 780 781 780 781 782 783 785 788 791 794 796 799 802 805 807 809 810 811 814 815 816 817 817 818 820 821 822 823 824 824 825 825 824 825
799 801 793 793 769 765 775 779 771 769 771 775 776 777 777 776 773 773 776 777 780 782 785 788 791 794 796 799 801 803 805 806 808 808 809 810 811 812 813 815 816 818 820 821 822 822 822 822 822
779 788 792 779 764 771 778 776 775 770 774 775 777 777 776 772 765 770 772 775 777 779 781 783 786 787 791 795 798 800 800 801 801 803 804 806 807 808 808 809 810 811 812 814 817 818 820 820 820
781 791 793 775 761 770 776 778 770 771 766 765 770 772 769 767 767 765 767 770 770 772 774 777 778 780 783 786 788 789 789 790 792 795 798 801 805 807 808 808 809 809 808 807 809 813 815 817 819
783 790 788 784 768 767 776 787 776 766 764 763 761 760 761 762 762 760 761 762 765 765 767 769 772 776 779 782 785 786 789 791 791 792 794 796 799 802 804 806 807 807 805 803 802 803 806 810 812
793 761 765 772 786 808 779 822 786 774 770 764 757 756 755 755 755 754 755 757 758 757 761 764 767 770 773 776 778 781 783 785 785 786 787 788 790 793 795 798 799 802 804 803 801 798 800 801 801
769 751 765 772 791 794 795 812 792 774 777 766 755 749 744 747 748 749 748 747 747 753 756 759 762 765 768 769 773 776 779 779 780 782 784 784 785 787 789 792 792 790 794 799 799 794 791 791 794
743 760 774 787 802 822 801 806 801 786 768 755 746 743 738 739 740 738 738 741 741 747 753 756 759 759 762 765 767 768 769 771 773 776 775 777 783 787 788 789 789 789 788 788 788 788 786 785 784
758 779 815 824 827 825 807 806 791 761 750 747 741 735 733 730 733 733 736 737 739 743 746 750 753 752 755 757 761 763 764 769 772 777 777 779 782 785 793 793 785 781 780 780 780 779 777 775 776
766 776 812 828 835 821 800 809 781 757 747 739 731 733 731 731 732 732 732 735 738 741 745 747 748 745 753 756 758 759 764 766 766 767 767 769 773 774 778 782 783 777 771 769 771 771 771 768 768
762 780 770 815 821 823 814 791 765 756 751 746 743 741 742 736 736 737 737 737 737 739 742 745 747 747 748 748 751 752 753 753 752 754 754 753 749 744 761 757 765 770 766 760 761 762 763 762 760
748 757 790 804 824 822 819 807 802 780 769 758 757 753 747 739 737 739 739 738 738 741 744 745 746 746 746 746 745 745 746 747 749 750 752 747 744 739 738 745 754 759 758 755 753 753 757 757 756
761 772 791 797 812 827 832 814 783 780 773 765 763 754 752 747 745 744 743 744 744 745 745 746 747 747 746 744 743 741 741 744 746 748 748 744 740 737 737 744 746 748 746 742 744 745 752 751 751
741 752 775 801 805 824 820 810 773 769 764 763 762 759 755 751 750 748 746 745 744 746 748 749 749 749 750 748 745 747 746 749 749 747 745 739 735 733 734 735 738 738 736 736 740 741 740 740 740